| time (UTC) | temp C | wind direction | speed KPH | gust KPH | rain 1hr cm | rain 24hr cm | rain mn cm | humidity % | barometer mb |
| 20260906154552 | 36 | 306 | 0.0 | 1.6 | 0.00 | 0.00 | 0.00 | 55 | 1008.9 |
| 20260906153027 | 35 | 303 | 0.0 | 4.8 | 0.00 | 0.00 | 0.00 | 58 | 1008.9 |
| 20260906151513 | 35 | 304 | 0.0 | 4.8 | 0.00 | 0.00 | 0.00 | 58 | 1008.7 |
| 20260906150045 | 33 | 307 | 0.0 | 3.2 | 0.00 | 0.00 | 0.00 | 64 | 1008.8 |
| 20260906144532 | 33 | 307 | 1.6 | 6.4 | 0.00 | 0.00 | 0.00 | 64 | 1008.9 |
| 20260906143004 | 32 | 308 | 0.0 | 4.8 | 0.00 | 0.00 | 0.00 | 68 | 1009.0 |
| 20260906141542 | 31 | 302 | 0.0 | 3.2 | 0.00 | 0.00 | 0.00 | 70 | 1009.0 |
| 20260906140029 | 30 | 316 | 0.0 | 6.4 | 0.00 | 0.00 | 0.00 | 66 | 1008.9 |
| 20260906134556 | 28 | 94 | 0.0 | 3.2 | 0.00 | 0.00 | 0.00 | 47 | 1008.9 |
| 20260906133034 | 26 | 94 | 0.0 | 3.2 | 0.00 | 0.00 | 0.00 | 27 | 1008.9 |
| 20260906131531 | 26 | 91 | 0.0 | 1.6 | 0.00 | 0.00 | 0.00 | 1 | 1008.8 |
| 20260906124538 | 25 | 91 | 0.0 | 3.2 | 0.00 | 0.00 | 0.00 | 1 | 1008.6 |
| 20260906123018 | 24 | 91 | 0.0 | 1.6 | 0.00 | 0.00 | 0.00 | 11 | 1008.5 |
| 20260906121556 | 24 | 91 | 0.0 | 0.0 | 0.00 | 0.00 | 0.00 | 18 | 1008.4 |
| 20260906120032 | 24 | 91 | 0.0 | 1.6 | 0.00 | 0.00 | 0.00 | 37 | 1008.2 |
| 20260906114512 | 24 | 91 | 0.0 | 1.6 | 0.00 | 0.00 | 0.00 | 41 | 1007.9 |
| 20260906113101 | 24 | 91 | 0.0 | 0.0 | 0.00 | 0.00 | 0.00 | 35 | 1007.9 |
| 20260906111556 | 24 | 91 | 0.0 | 3.2 | 0.00 | 0.00 | 0.00 | 31 | 1007.8 |
| 20260906110019 | 24 | 88 | 0.0 | 0.0 | 0.00 | 0.00 | 0.00 | 52 | 1007.6 |
| 20260906104558 | 25 | 88 | 0.0 | 0.0 | 0.00 | 0.00 | 0.00 | 51 | 1007.5 |
| 20260906103043 | 25 | 88 | 0.0 | 0.0 | 0.00 | 0.00 | 0.00 | 50 | 1007.5 |
| 20260906101528 | 25 | 88 | 0.0 | 0.0 | 0.00 | 0.00 | 0.00 | 48 | 1007.4 |
| 20260906100012 | 25 | 88 | 0.0 | 0.0 | 0.00 | 0.00 | 0.00 | 49 | 1007.3 |
| 20260906094548 | 25 | 88 | 0.0 | 0.0 | 0.00 | 0.00 | 0.00 | 46 | 1007.2 |
| 20260906093037 | 25 | 88 | 0.0 | 0.0 | 0.00 | 0.00 | 0.00 | 47 | 1007.1 |
| 20260906091509 | 25 | 88 | 0.0 | 0.0 | 0.00 | 0.00 | 0.00 | 55 | 1007.0 |
| 20260906090053 | 25 | 88 | 0.0 | 0.0 | 0.00 | 0.00 | 0.00 | 55 | 1006.9 |
| 20260906084542 | 25 | 88 | 0.0 | 0.0 | 0.00 | 0.00 | 0.00 | 56 | 1006.9 |
| 20260906083013 | 25 | 88 | 0.0 | 0.0 | 0.00 | 0.00 | 0.00 | 61 | 1006.8 |
| 20260906081541 | 25 | 88 | 0.0 | 0.0 | 0.00 | 0.00 | 0.00 | 63 | 1006.9 |
| 20260906080030 | 26 | 88 | 0.0 | 0.0 | 0.00 | 0.00 | 0.00 | 69 | 1006.7 |
| 20260906074602 | 26 | 88 | 0.0 | 0.0 | 0.00 | 0.00 | 0.00 | 69 | 1006.8 |
| 20260906074508 | 26 | 88 | 0.0 | 0.0 | 0.00 | 0.00 | 0.00 | 70 | 1006.8 |
| 20260906073043 | 26 | 88 | 0.0 | 0.0 | 0.00 | 0.00 | 0.00 | 69 | 1006.9 |
| 20260906071520 | 26 | 88 | 0.0 | 0.0 | 0.00 | 0.00 | 0.00 | 71 | 1007.0 |
| 20260906070053 | 26 | 88 | 0.0 | 0.0 | 0.00 | 0.00 | 0.00 | 71 | 1007.0 |
| 20260906064535 | 27 | 88 | 0.0 | 0.0 | 0.00 | 0.00 | 0.00 | 71 | 1007.1 |
| 20260906063012 | 27 | 88 | 0.0 | 0.0 | 0.00 | 0.00 | 0.00 | 72 | 1007.1 |
| 20260906061556 | 27 | 88 | 0.0 | 1.6 | 0.00 | 0.00 | 0.00 | 72 | 1007.1 |
| 20260906060036 | 27 | 88 | 0.0 | 0.0 | 0.00 | 0.00 | 0.00 | 72 | 1007.1 |
| 20260906054515 | 27 | 88 | 0.0 | 0.0 | 0.00 | 0.00 | 0.00 | 72 | 1007.1 |
| 20260906053059 | 27 | 88 | 0.0 | 0.0 | 0.00 | 0.00 | 0.00 | 71 | 1007.1 |
| 20260906051539 | 27 | 88 | 0.0 | 0.0 | 0.00 | 0.00 | 0.00 | 71 | 1007.1 |
| 20260906050026 | 27 | 88 | 0.0 | 1.6 | 0.00 | 0.00 | 0.00 | 71 | 1007.0 |
| 20260906044600 | 27 | 88 | 0.0 | 0.0 | 0.00 | 0.00 | 0.00 | 71 | 1007.0 |
| 20260906044505 | 27 | 88 | 0.0 | 0.0 | 0.00 | 0.00 | 0.00 | 71 | 1007.0 |
| 20260906043040 | 27 | 88 | 0.0 | 0.0 | 0.00 | 0.00 | 0.00 | 71 | 1006.8 |
| 20260906041520 | 28 | 88 | 0.0 | 0.0 | 0.00 | 0.00 | 0.00 | 71 | 1006.7 |
| 20260906040003 | 28 | 88 | 0.0 | 0.0 | 0.00 | 0.00 | 0.00 | 71 | 1006.7 |
| 20260906034546 | 28 | 88 | 0.0 | 0.0 | 0.00 | 0.00 | 0.00 | 71 | 1006.9 |
| 20260906033027 | 28 | 88 | 0.0 | 1.6 | 0.00 | 0.00 | 0.00 | 71 | 1007.0 |
| 20260906031503 | 28 | 88 | 0.0 | 0.0 | 0.00 | 0.00 | 0.00 | 70 | 1007.2 |
| 20260906030044 | 29 | 88 | 0.0 | 0.0 | 0.00 | 0.00 | 0.00 | 69 | 1007.2 |
| 20260906024524 | 29 | 88 | 0.0 | 0.0 | 0.00 | 0.00 | 0.00 | 69 | 1007.2 |
| 20260906023009 | 29 | 88 | 0.0 | 0.0 | 0.00 | 0.00 | 0.00 | 68 | 1007.1 |
| 20260906021548 | 30 | 88 | 0.0 | 0.0 | 0.00 | 0.00 | 0.00 | 68 | 1006.9 |
| 20260906020028 | 30 | 88 | 0.0 | 1.6 | 0.00 | 0.00 | 0.00 | 66 | 1006.5 |
| 20260906014526 | 31 | 88 | 0.0 | 1.6 | 0.00 | 0.00 | 0.00 | 64 | 1006.4 |
| 20260906013057 | 31 | 88 | 0.0 | 1.6 | 0.00 | 0.00 | 0.00 | 61 | 1006.4 |
| 20260906011542 | 32 | 88 | 0.0 | 6.4 | 0.00 | 0.00 | 0.00 | 59 | 1006.1 |
| 20260906010017 | 32 | 350 | 0.0 | 0.0 | 0.00 | 0.00 | 0.00 | 58 | 1005.9 |
| 20260906004503 | 32 | 350 | 0.0 | 1.6 | 0.00 | 0.00 | 0.00 | 56 | 1005.8 |
| 20260906003050 | 32 | 350 | 1.6 | 3.2 | 0.00 | 0.00 | 0.00 | 54 | 1005.8 |
| 20260906001525 | 33 | 350 | 1.6 | 3.2 | 0.00 | 0.00 | 0.00 | 54 | 1005.9 |
| 20260906000005 | 33 | 350 | 1.6 | 3.2 | 0.00 | 0.00 | 0.00 | 52 | 1005.9 |
| 20260905234545 | 33 | 350 | 1.6 | 3.2 | 0.00 | 0.00 | 0.00 | 52 | 1005.9 |
| 20260905233031 | 34 | 350 | 0.0 | 3.2 | 0.00 | 0.00 | 0.00 | 50 | 1005.7 |
| 20260905231510 | 35 | 355 | 1.6 | 3.2 | 0.00 | 0.00 | 0.00 | 49 | 1005.8 |
| 20260905230051 | 35 | 355 | 0.0 | 1.6 | 0.00 | 0.00 | 0.00 | 50 | 1005.8 |
| 20260905224535 | 35 | 355 | 0.0 | 3.2 | 0.00 | 0.00 | 0.00 | 49 | 1005.8 |
| 20260905223013 | 35 | 349 | 0.0 | 4.8 | 0.00 | 0.00 | 0.00 | 48 | 1005.8 |
| 20260905221557 | 35 | 350 | 0.0 | 8.0 | 0.00 | 0.00 | 0.00 | 48 | 1005.9 |
| 20260905220041 | 36 | 140 | 1.6 | 6.4 | 0.00 | 0.00 | 0.00 | 47 | 1005.9 |
| 20260905214515 | 36 | 70 | 1.6 | 6.4 | 0.00 | 0.00 | 0.00 | 47 | 1006.0 |
| 20260905213048 | 36 | 98 | 0.0 | 6.4 | 0.00 | 0.00 | 0.00 | 47 | 1006.0 |
| 20260905211539 | 35 | 154 | 0.0 | 4.8 | 0.00 | 0.00 | 0.00 | 48 | 1006.1 |
| 20260905210015 | 35 | 222 | 0.0 | 4.8 | 0.00 | 0.00 | 0.00 | 46 | 1006.2 |
| 20260905204559 | 35 | 269 | 1.6 | 6.4 | 0.00 | 0.00 | 0.00 | 51 | 1006.5 |
| 20260905203034 | 35 | 252 | 0.0 | 4.8 | 0.00 | 0.00 | 0.00 | 54 | 1007.0 |
| 20260905201513 | 36 | 207 | 1.6 | 20.9 | 0.00 | 0.00 | 0.00 | 51 | 1007.2 |
| 20260905200100 | 37 | 224 | 3.2 | 9.7 | 0.00 | 0.00 | 0.00 | 44 | 1007.2 |
| 20260905194529 | 37 | 296 | 1.6 | 16.1 | 0.00 | 0.00 | 0.00 | 44 | 1007.4 |
| 20260905193013 | 37 | 324 | 3.2 | 9.7 | 0.00 | 0.00 | 0.00 | 45 | 1007.7 |
| 20260905191557 | 38 | 323 | 3.2 | 8.0 | 0.00 | 0.00 | 0.00 | 45 | 1007.8 |
| 20260905190035 | 38 | 259 | 3.2 | 8.0 | 0.00 | 0.00 | 0.00 | 42 | 1008.0 |
| 20260905184513 | 40 | 161 | 6.4 | 11.3 | 0.00 | 0.00 | 0.00 | 40 | 1008.1 |
| 20260905183052 | 40 | 323 | 1.6 | 8.0 | 0.00 | 0.00 | 0.00 | 42 | 1008.3 |
| 20260905181535 | 40 | 57 | 3.2 | 11.3 | 0.00 | 0.00 | 0.00 | 40 | 1008.5 |
| 20260905180006 | 38 | 324 | 1.6 | 9.7 | 0.00 | 0.00 | 0.00 | 43 | 1008.6 |
| 20260905174550 | 38 | 115 | 3.2 | 6.4 | 0.00 | 0.00 | 0.00 | 41 | 1008.8 |
| 20260905173032 | 38 | 105 | 0.0 | 4.8 | 0.00 | 0.00 | 0.00 | 44 | 1008.9 |
| 20260905171524 | 38 | 192 | 1.6 | 8.0 | 0.00 | 0.00 | 0.00 | 43 | 1009.1 |
| 20260905170100 | 38 | 109 | 3.2 | 6.4 | 0.00 | 0.00 | 0.00 | 41 | 1009.3 |
| 20260905164540 | 38 | 42 | 0.0 | 9.7 | 0.00 | 0.00 | 0.00 | 43 | 1009.4 |
| 20260905163018 | 37 | 351 | 0.0 | 4.8 | 0.00 | 0.00 | 0.00 | 49 | 1009.6 |
| 20260905161554 | 37 | 355 | 0.0 | 4.8 | 0.00 | 0.00 | 0.00 | 51 | 1009.7 |
| 20260905160043 | 36 | 360 | 1.6 | 8.0 | 0.00 | 0.00 | 0.00 | 55 | 1009.7 |